Wheeling, WV

11:54 AM EDT on April 23, 2017 (GMT -0400)
Wheeling-Ohio County

Weather History for KHLG - December, 2011

Change the Weather History Date:

Friday, December 30, 2011

  Actual Average Record
Temperature  
Mean Temperature 47 °F 30 °F  
Max Temperature 53 °F 36 °F 53 °F (2011)
Min Temperature 40 °F 23 °F 12 °F (2001)
Degree Days  
Heating Degree Days 18 35  
Month to date heating degree days 802 960  
Since 1 July heating degree days 1554 2088  
Cooling Degree Days 0    
Month to date cooling degree days 0  
Year to date cooling degree days 0  
Moisture  
Dew Point 35 °F    
Average Humidity 68    
Maximum Humidity 82    
Minimum Humidity 53    
Precipitation  
Precipitation 0.02 in 0.09 in 0.37 in (1984)
Month to date precipitation 3.25 2.42  
Sea Level Pressure  
Sea Level Pressure 29.81 in    
Wind  
Wind Speed 11 mph (SSW)    
Max Wind Speed 25 mph    
Max Gust Speed 32 mph    
Visibility 10 miles    
Events Rain    
T = Trace of Precipitation, MM = Missing Value Source: NWS Daily Summary

Daily Weather History Graph

Daily Weather History Graph

Search for Another Location

Airport or City:

Trip Planner

Search our weather history database for the weather conditions in past years. The results will help you decide how hot, cold, wet, or windy it might be!

Date:

Astronomy

Dec. 30, 2011 Rise Set
Actual Time 7:44 AM EST 5:05 PM EST
Civil Twilight 7:14 AM EST 5:36 PM EST
Nautical Twilight 6:39 AM EST 6:10 PM EST
Astronomical Twilight 6:06 AM EST 6:43 PM EST
Moon 11:02 AM EST (12/30) 11:40 PM EST (12/30)
Length of Visible Light 10h 22m
Length of Day
9h 21m
Waxing Crescent, 35% of the Moon is Illuminated
Dec 30
Waxing Crescent
Jan 1
First Quarter
Jan 9
Full
Jan 16
Last Quarter
Jan 23
New

Hourly Weather History & Observations

Time (EST) Temp. Windchill Dew Point Humidity Pressure Visibility Wind Dir Wind Speed Gust Speed Precip Events Conditions
12:53 AM 43.0 °F 35.7 °F 28.0 °F 56% 29.85 in 10.0 mi SW 15.0 mph 23.0 mph N/A   Overcast
1:53 AM 42.1 °F 35.2 °F 28.0 °F 58% 29.86 in 10.0 mi SW 12.7 mph - N/A   Overcast
2:53 AM 42.1 °F 36.1 °F 28.0 °F 58% 29.88 in 10.0 mi SW 10.4 mph - N/A   Overcast
3:53 AM 41.0 °F 33.9 °F 28.0 °F 60% 29.89 in 10.0 mi SSW 12.7 mph - N/A   Clear
4:53 AM 41.0 °F 34.3 °F 28.9 °F 62% 29.89 in 10.0 mi SW 11.5 mph 18.4 mph N/A   Clear
5:53 AM 41.0 °F 34.3 °F 28.9 °F 62% 29.89 in 10.0 mi SSW 11.5 mph - N/A   Clear
6:53 AM 39.9 °F 33.9 °F 28.9 °F 65% 29.91 in 10.0 mi SSW 9.2 mph - N/A   Clear
7:53 AM 41.0 °F 34.7 °F 28.9 °F 62% 29.91 in 10.0 mi South 10.4 mph - N/A   Partly Cloudy
8:53 AM 42.1 °F 36.6 °F 30.0 °F 62% 29.92 in 10.0 mi South 9.2 mph - N/A   Mostly Cloudy
9:53 AM 44.1 °F 37.7 °F 32.0 °F 63% 29.93 in 10.0 mi SSW 12.7 mph 19.6 mph N/A   Overcast
10:53 AM 45.0 °F 39.7 °F 34.0 °F 65% 29.91 in 10.0 mi SSW 10.4 mph - N/A   Overcast
11:53 AM 48.0 °F - 36.0 °F 63% 29.86 in 10.0 mi SSW 11.5 mph 21.9 mph N/A   Overcast
12:53 PM 48.9 °F - 36.0 °F 61% 29.82 in 10.0 mi SSW 8.1 mph - N/A   Mostly Cloudy
1:19 PM 50.0 °F - 37.4 °F 62% 29.77 in 10.0 mi South 8.1 mph - N/A   Mostly Cloudy
1:53 PM 51.1 °F - 37.9 °F 61% 29.78 in 10.0 mi South 11.5 mph - N/A   Clear
2:53 PM 52.0 °F - 37.9 °F 59% 29.74 in 10.0 mi SSE 6.9 mph - N/A   Partly Cloudy
3:53 PM 52.0 °F - 37.9 °F 59% 29.75 in 10.0 mi SSE 6.9 mph - N/A   Overcast
4:53 PM 51.1 °F - 37.9 °F 61% 29.75 in 10.0 mi SSE 9.2 mph - N/A   Clear
5:53 PM 52.0 °F - 37.9 °F 59% 29.71 in 10.0 mi SSE 13.8 mph - N/A   Overcast
6:53 PM 52.0 °F - 37.0 °F 57% 29.70 in 10.0 mi SSE 11.5 mph - N/A   Overcast
7:53 PM 52.0 °F - 37.0 °F 57% 29.71 in 10.0 mi SSE 10.4 mph - 0.00 in   Overcast
8:53 PM 46.9 °F - 41.0 °F 80% 29.73 in 10.0 mi South 9.2 mph - 0.01 in   Mostly Cloudy
9:38 PM 46.4 °F 38.5 °F 41.0 °F 81% 29.76 in 10.0 mi West 21.9 mph 32.2 mph 0.00 in Rain Light Rain
9:49 PM 46.4 °F 39.8 °F 39.2 °F 76% 29.76 in 10.0 mi West 16.1 mph 31.1 mph 0.00 in Rain Light Rain
9:53 PM 46.0 °F 38.5 °F 39.9 °F 79% 29.77 in 10.0 mi West 19.6 mph 25.3 mph 0.00 in Rain Light Rain
10:53 PM 45.0 °F 41.8 °F 39.9 °F 82% 29.76 in 10.0 mi SW 5.8 mph - 0.01 in   Overcast
11:53 PM 45.0 °F 40.6 °F 39.0 °F 80% 29.75 in 10.0 mi South 8.1 mph - N/A   Overcast